timestamp,wind_dir_avg,wind_spd_max_dir,wind_spd_avg,wind_spd_gust,battery_voltage,lat,long
2017-09-26 00:00:00+00:00,99.0,89.0,3.33,4.44,12.7,47.59359,-54.27349
2017-09-26 00:10:00+00:00,96.0,112.0,3.2,4.68,12.6,47.59359,-54.27349
2017-09-26 00:20:00+00:00,111.0,130.0,3.11,5.02,12.7,47.59359,-54.27349
2017-09-26 00:30:00+00:00,102.0,120.0,2.75,4.21,12.7,47.59359,-54.27349
2017-09-26 00:40:00+00:00,106.0,111.0,2.53,3.7,12.7,47.59359,-54.27349
2017-09-26 00:50:00+00:00,108.0,128.0,2.29,3.28,12.7,47.59359,-54.27349
2017-09-26 01:00:00+00:00,131.0,138.0,2.67,3.45,12.6,47.59359,-54.27349
2017-09-26 01:10:00+00:00,125.0,126.0,2.8,3.75,12.6,47.59359,-54.27349
2017-09-26 01:20:00+00:00,138.0,150.0,3.16,3.76,12.7,47.59359,-54.27349
2017-09-26 01:30:00+00:00,112.0,137.0,2.34,4.21,12.7,47.59359,-54.27349
2017-09-26 01:40:00+00:00,118.0,143.0,2.54,3.72,12.7,47.59359,-54.27349
2017-09-26 01:50:00+00:00,132.0,134.0,3.24,3.97,12.7,47.59359,-54.27349
2017-09-26 02:00:00+00:00,142.0,132.0,3.79,4.78,12.6,47.59359,-54.27349
2017-09-26 02:10:00+00:00,136.0,139.0,3.33,4.08,12.6,47.59359,-54.27349
2017-09-26 02:20:00+00:00,160.0,164.0,3.15,3.86,12.6,47.59359,-54.27349
2017-09-26 02:30:00+00:00,137.0,138.0,2.43,3.02,12.6,47.59359,-54.27349
2017-09-26 02:40:00+00:00,141.0,140.0,1.38,1.88,12.7,47.59359,-54.27349
2017-09-26 02:50:00+00:00,135.0,133.0,1.11,1.75,12.7,47.59359,-54.27349
2017-09-26 03:00:00+00:00,111.0,99.0,1.11,1.48,12.6,47.59359,-54.27349
2017-09-26 03:10:00+00:00,134.0,128.0,1.64,2.01,12.6,47.59359,-54.27349
2017-09-26 03:20:00+00:00,107.0,76.0,0.87,1.45,12.6,47.59359,-54.27349
2017-09-26 03:30:00+00:00,92.0,103.0,0.93,1.43,12.6,47.59359,-54.27349
2017-09-26 03:40:00+00:00,100.0,129.0,1.27,1.79,12.6,47.59359,-54.27349
2017-09-26 03:50:00+00:00,132.0,135.0,2.34,2.95,12.7,47.59359,-54.27349
2017-09-26 04:00:00+00:00,159.0,156.0,2.19,2.44,12.6,47.59359,-54.27349
2017-09-26 04:10:00+00:00,162.0,160.0,2.26,2.86,12.6,47.59359,-54.27349
2017-09-26 04:20:00+00:00,162.0,166.0,1.72,2.0,12.6,47.59359,-54.27349
2017-09-26 04:30:00+00:00,133.0,139.0,1.69,2.38,12.6,47.59359,-54.27349
2017-09-26 04:40:00+00:00,160.0,162.0,2.84,4.34,12.6,47.59359,-54.27349
2017-09-26 04:50:00+00:00,168.0,165.0,3.63,4.72,12.6,47.59359,-54.27349
2017-09-26 05:00:00+00:00,183.0,181.0,4.76,5.54,12.6,47.59359,-54.27349
2017-09-26 05:10:00+00:00,183.0,184.0,4.82,5.4,12.6,47.59359,-54.27349
2017-09-26 05:20:00+00:00,179.0,188.0,4.84,5.46,12.6,47.59359,-54.27349
2017-09-26 05:30:00+00:00,180.0,182.0,3.95,4.47,12.6,47.59359,-54.27349
2017-09-26 05:40:00+00:00,185.0,191.0,3.25,3.68,12.6,47.59359,-54.27349
2017-09-26 05:50:00+00:00,186.0,191.0,2.25,2.48,12.6,47.59359,-54.27349
2017-09-26 06:00:00+00:00,192.0,181.0,1.87,2.51,12.6,47.59359,-54.27349
2017-09-26 06:10:00+00:00,209.0,214.0,3.09,3.65,12.6,47.59359,-54.27349
2017-09-26 06:20:00+00:00,196.0,193.0,4.49,4.92,12.6,47.59359,-54.27349
2017-09-26 06:30:00+00:00,206.0,213.0,4.11,4.74,12.6,47.59359,-54.27349
2017-09-26 06:40:00+00:00,197.0,197.0,4.96,5.75,12.6,47.59359,-54.27349
2017-09-26 06:50:00+00:00,219.0,218.0,6.42,7.1,12.6,47.59359,-54.27349
2017-09-26 07:00:00+00:00,218.0,216.0,7.67,8.44,12.6,47.59359,-54.27349
2017-09-26 07:10:00+00:00,224.0,224.0,7.09,7.83,12.5,47.59359,-54.27349
2017-09-26 07:20:00+00:00,218.0,224.0,9.13,10.75,12.6,47.59359,-54.27349
2017-09-26 07:30:00+00:00,218.0,217.0,8.63,9.48,12.6,47.59359,-54.27349
2017-09-26 07:40:00+00:00,219.0,225.0,9.74,10.77,12.6,47.59359,-54.27349
2017-09-26 07:50:00+00:00,220.0,220.0,9.8,11.07,12.6,47.59359,-54.27349
2017-09-26 08:00:00+00:00,221.0,223.0,9.07,10.39,12.6,47.59359,-54.27349
2017-09-26 08:10:00+00:00,216.0,211.0,10.84,12.2,12.5,47.59359,-54.27349
2017-09-26 08:20:00+00:00,220.0,221.0,11.09,12.29,12.6,47.59359,-54.27349
2017-09-26 08:30:00+00:00,224.0,232.0,10.21,11.82,12.6,47.59359,-54.27349
2017-09-26 08:40:00+00:00,224.0,223.0,10.91,12.34,12.6,47.59359,-54.27349
2017-09-26 08:50:00+00:00,227.0,226.0,11.37,13.87,12.6,47.59359,-54.27349
2017-09-26 09:00:00+00:00,227.0,232.0,11.02,12.5,12.6,47.59359,-54.27349
2017-09-26 09:10:00+00:00,227.0,230.0,11.43,12.97,12.5,47.59359,-54.27349
2017-09-26 09:20:00+00:00,219.0,219.0,12.24,13.82,12.6,47.59359,-54.27349
2017-09-26 09:30:00+00:00,222.0,224.0,11.86,13.69,12.6,47.59359,-54.27349
2017-09-26 09:40:00+00:00,228.0,220.0,9.97,12.31,12.6,47.59359,-54.27349
2017-09-26 09:50:00+00:00,226.0,232.0,8.93,10.85,12.6,47.59359,-54.27349
2017-09-26 10:00:00+00:00,229.0,230.0,9.01,10.97,12.6,47.59359,-54.27349
2017-09-26 10:10:00+00:00,230.0,235.0,10.97,13.59,12.5,47.59359,-54.27349
2017-09-26 10:20:00+00:00,226.0,224.0,11.48,12.8,12.6,47.59359,-54.27349
2017-09-26 10:30:00+00:00,227.0,233.0,12.21,13.69,12.6,47.59359,-54.27349
2017-09-26 10:40:00+00:00,236.0,232.0,13.05,15.25,12.6,47.59359,-54.27349
2017-09-26 10:50:00+00:00,233.0,235.0,12.18,14.92,12.6,47.59359,-54.27349
2017-09-26 11:00:00+00:00,238.0,239.0,13.2,15.44,12.6,47.59359,-54.27349
2017-09-26 11:10:00+00:00,237.0,236.0,13.15,15.3,12.5,47.59359,-54.27349
2017-09-26 11:20:00+00:00,243.0,250.0,12.0,14.59,12.6,47.59359,-54.27349
2017-09-26 11:30:00+00:00,239.0,241.0,11.85,14.19,12.6,47.59359,-54.27349
2017-09-26 11:40:00+00:00,238.0,242.0,11.54,13.23,12.6,47.59359,-54.27349
2017-09-26 11:50:00+00:00,237.0,230.0,10.98,12.83,12.6,47.59359,-54.27349
2017-09-26 12:00:00+00:00,236.0,240.0,11.33,13.25,12.6,47.59359,-54.27349
2017-09-26 12:10:00+00:00,235.0,229.0,10.87,12.76,12.6,47.59359,-54.27349
2017-09-26 12:20:00+00:00,239.0,241.0,11.37,13.28,12.7,47.59359,-54.27349
2017-09-26 12:30:00+00:00,238.0,241.0,11.74,13.31,12.8,47.59359,-54.27349
2017-09-26 12:40:00+00:00,242.0,243.0,11.12,13.47,12.9,47.59359,-54.27349
2017-09-26 12:50:00+00:00,242.0,243.0,10.75,12.99,13.0,47.59359,-54.27349
2017-09-26 13:00:00+00:00,249.0,250.0,10.25,14.07,13.0,47.59359,-54.27349
2017-09-26 13:10:00+00:00,246.0,249.0,9.26,10.59,12.8,47.59359,-54.27349
2017-09-26 13:20:00+00:00,253.0,255.0,9.58,10.71,12.9,47.59359,-54.27349
2017-09-26 13:30:00+00:00,248.0,251.0,8.99,10.63,13.0,47.59359,-54.27349
2017-09-26 13:40:00+00:00,242.0,240.0,10.91,13.57,13.1,47.59359,-54.27349
2017-09-26 13:50:00+00:00,246.0,245.0,10.53,12.4,13.3,47.59359,-54.27349
2017-09-26 14:00:00+00:00,242.0,249.0,11.16,14.07,13.4,47.59359,-54.27349
2017-09-26 14:10:00+00:00,242.0,246.0,10.61,12.61,13.3,47.59359,-54.27349
2017-09-26 14:20:00+00:00,244.0,238.0,11.06,12.48,13.4,47.59359,-54.27349
2017-09-26 14:30:00+00:00,244.0,244.0,10.48,11.75,13.4,47.59359,-54.27349
2017-09-26 14:40:00+00:00,245.0,245.0,9.93,11.09,13.4,47.59359,-54.27349
2017-09-26 14:50:00+00:00,246.0,247.0,8.88,9.94,13.4,47.59359,-54.27349
2017-09-26 15:00:00+00:00,254.0,257.0,9.98,11.21,13.5,47.59359,-54.27349
2017-09-26 15:10:00+00:00,257.0,257.0,10.09,11.27,13.5,47.59359,-54.27349
2017-09-26 15:20:00+00:00,259.0,267.0,10.18,11.03,13.8,47.59359,-54.27349
2017-09-26 15:30:00+00:00,261.0,266.0,11.8,13.2,13.8,47.59359,-54.27349
2017-09-26 15:40:00+00:00,260.0,259.0,10.99,12.46,14.1,47.59359,-54.27349
2017-09-26 15:50:00+00:00,259.0,258.0,10.27,11.35,14.2,47.59359,-54.27349
2017-09-26 16:00:00+00:00,259.0,260.0,10.9,12.09,13.7,47.59359,-54.27349
2017-09-26 16:10:00+00:00,259.0,265.0,10.0,11.4,14.0,47.59359,-54.27349
2017-09-26 16:20:00+00:00,258.0,257.0,9.63,11.21,13.9,47.59359,-54.27349
2017-09-26 16:30:00+00:00,263.0,267.0,8.14,9.72,13.8,47.59359,-54.27349
2017-09-26 16:40:00+00:00,262.0,263.0,7.11,8.39,13.8,47.59359,-54.27349
2017-09-26 16:50:00+00:00,257.0,264.0,5.98,7.35,13.7,47.59359,-54.27349
2017-09-26 17:00:00+00:00,254.0,244.0,7.46,8.69,13.6,47.59359,-54.27349
2017-09-26 17:10:00+00:00,273.0,276.0,11.11,13.29,13.7,47.59359,-54.27349
2017-09-26 17:20:00+00:00,250.0,257.0,6.2,7.33,13.8,47.59359,-54.27349
2017-09-26 17:30:00+00:00,259.0,266.0,5.89,7.51,14.1,47.59359,-54.27349
2017-09-26 17:40:00+00:00,272.0,270.0,6.51,7.42,13.6,47.59359,-54.27349
2017-09-26 17:50:00+00:00,276.0,276.0,7.6,8.81,14.0,47.59359,-54.27349
2017-09-26 18:00:00+00:00,273.0,285.0,6.91,8.36,13.9,47.59359,-54.27349
2017-09-26 18:10:00+00:00,286.0,283.0,8.57,9.75,13.8,47.59359,-54.27349
2017-09-26 18:20:00+00:00,284.0,284.0,7.66,8.88,13.7,47.59359,-54.27349
2017-09-26 18:30:00+00:00,288.0,288.0,9.16,10.29,13.8,47.59359,-54.27349
2017-09-26 18:40:00+00:00,283.0,285.0,6.84,7.8,13.7,47.59359,-54.27349
2017-09-26 18:50:00+00:00,288.0,288.0,7.24,7.89,13.7,47.59359,-54.27349
2017-09-26 19:00:00+00:00,284.0,295.0,6.84,8.08,13.6,47.59359,-54.27349
2017-09-26 19:10:00+00:00,279.0,285.0,6.75,8.04,13.9,47.59359,-54.27349
2017-09-26 19:20:00+00:00,276.0,274.0,6.8,7.37,13.7,47.59359,-54.27349
2017-09-26 19:30:00+00:00,302.0,303.0,6.7,7.36,14.2,47.59359,-54.27349
2017-09-26 19:40:00+00:00,299.0,303.0,7.26,8.23,13.7,47.59359,-54.27349
2017-09-26 19:50:00+00:00,297.0,300.0,6.9,7.5,14.2,47.59359,-54.27349
2017-09-26 20:00:00+00:00,303.0,305.0,5.58,6.36,14.0,47.59359,-54.27349
2017-09-26 20:10:00+00:00,306.0,307.0,6.19,6.73,13.8,47.59359,-54.27349
2017-09-26 20:20:00+00:00,319.0,311.0,4.92,6.15,13.8,47.59359,-54.27349
2017-09-26 20:30:00+00:00,343.0,345.0,7.83,9.29,13.6,47.59359,-54.27349
2017-09-26 20:40:00+00:00,10.0,8.0,10.89,12.17,13.5,47.59359,-54.27349
2017-09-26 20:50:00+00:00,13.0,12.0,13.29,15.13,13.4,47.59359,-54.27349
2017-09-26 21:00:00+00:00,16.0,11.0,12.83,16.6,13.3,47.59359,-54.27349
2017-09-26 21:10:00+00:00,21.0,9.0,12.07,14.65,13.0,47.59359,-54.27349
2017-09-26 21:20:00+00:00,20.0,15.0,9.15,11.06,13.0,47.59359,-54.27349
2017-09-26 21:30:00+00:00,22.0,13.0,11.59,13.98,13.0,47.59359,-54.27349
2017-09-26 21:40:00+00:00,25.0,20.0,12.39,16.16,13.0,47.59359,-54.27349
2017-09-26 21:50:00+00:00,16.0,15.0,10.87,13.01,13.0,47.59359,-54.27349
2017-09-26 22:00:00+00:00,26.0,28.0,10.61,11.96,12.8,47.59359,-54.27349
2017-09-26 22:10:00+00:00,25.0,33.0,11.41,13.55,12.7,47.59359,-54.27349
2017-09-26 22:20:00+00:00,16.0,17.0,14.07,15.63,12.8,47.59359,-54.27349
2017-09-26 22:30:00+00:00,25.0,28.0,12.4,14.52,12.8,47.59359,-54.27349
2017-09-26 22:40:00+00:00,33.0,39.0,14.28,16.44,12.8,47.59359,-54.27349
2017-09-26 22:50:00+00:00,35.0,37.0,14.27,16.0,12.8,47.59359,-54.27349
2017-09-26 23:00:00+00:00,31.0,36.0,14.11,16.88,12.7,47.59359,-54.27349
2017-09-26 23:10:00+00:00,33.0,31.0,15.46,17.53,12.6,47.59359,-54.27349
2017-09-26 23:20:00+00:00,34.0,36.0,12.82,14.76,12.7,47.59359,-54.27349
2017-09-26 23:30:00+00:00,38.0,39.0,14.12,16.92,12.7,47.59359,-54.27349
2017-09-26 23:40:00+00:00,31.0,32.0,12.62,14.36,12.7,47.59359,-54.27349
2017-09-26 23:50:00+00:00,33.0,30.0,13.58,16.05,12.7,47.59359,-54.27349
